Time,TemperatureF,DewpointF,PressureIn,WindDirection,WindDirectionDegrees,WindSpeedMPH,WindSpeedGustMPH,Humidity,HourlyPrecipIn,Conditions,Clouds,dailyrainin,SoftwareType,DateUTC
2013-09-26 00:24:00,49.0,47.0,30.03,NW,326,1.0,3.0,93,0.00,,,0.02,,2013-09-26 04:24:00,
2013-09-26 00:54:00,47.0,45.0,30.03,NW,326,2.0,3.0,93,0.00,,,0.02,,2013-09-26 04:54:00,
2013-09-26 01:23:00,46.0,44.0,30.04,NW,325,1.0,3.0,94,0.00,,,0.02,,2013-09-26 05:23:00,
2013-09-26 01:52:00,46.0,44.0,30.04,NW,324,0.0,3.0,94,0.00,,,0.02,,2013-09-26 05:52:00,
2013-09-26 02:13:00,44.0,42.0,30.04,West,268,0.0,2.0,94,0.00,,,0.02,,2013-09-26 06:13:00,
2013-09-26 02:22:00,44.0,43.0,30.04,NW,326,2.0,3.0,95,0.00,,,0.02,,2013-09-26 06:22:00,
2013-09-26 02:53:00,44.0,43.0,30.05,NW,326,0.0,3.0,95,0.00,,,0.02,,2013-09-26 06:53:00,
2013-09-26 03:12:00,43.0,42.0,30.05,NW,324,0.0,2.0,95,0.00,,,0.02,,2013-09-26 07:12:00,
2013-09-26 03:22:00,43.0,42.0,30.05,NW,324,0.0,2.0,95,0.00,,,0.02,,2013-09-26 07:22:00,
2013-09-26 03:53:00,42.0,41.0,30.06,NW,315,0.0,2.0,95,0.00,,,0.01,,2013-09-26 07:53:00,
2013-09-26 04:11:00,42.0,41.0,30.06,NW,316,0.0,3.0,95,0.00,,,0.01,,2013-09-26 08:11:00,
2013-09-26 04:22:00,42.0,41.0,30.06,NW,316,0.0,3.0,96,0.00,,,0.01,,2013-09-26 08:22:00,
2013-09-26 04:52:00,42.0,41.0,30.07,NW,316,0.0,2.0,96,0.00,,,0.01,,2013-09-26 08:52:00,
2013-09-26 05:22:00,41.0,40.0,30.08,West,270,0.0,3.0,95,0.00,,,0.01,,2013-09-26 09:22:00,
2013-09-26 05:54:00,41.0,40.0,30.09,West,275,3.0,3.0,95,0.00,,,0.01,,2013-09-26 09:54:00,
2013-09-26 06:23:00,41.0,40.0,30.09,WNW,284,0.0,3.0,95,0.00,,,0.01,,2013-09-26 10:23:00,
2013-09-26 06:53:00,41.0,40.0,30.09,WNW,283,0.0,3.0,95,0.00,,,0.01,,2013-09-26 10:53:00,
2013-09-26 07:22:00,39.0,38.0,30.10,West,280,1.0,3.0,95,0.00,,,0.01,,2013-09-26 11:22:00,
2013-09-26 07:52:00,40.0,39.0,30.11,WNW,299,1.0,3.0,95,0.00,,,0.01,,2013-09-26 11:52:00,
2013-09-26 08:12:00,40.0,39.0,30.11,WNW,299,0.0,3.0,95,0.00,,,0.01,,2013-09-26 12:12:00,
2013-09-26 08:22:00,40.0,39.0,30.11,WNW,297,0.0,3.0,95,0.00,,,0.01,,2013-09-26 12:22:00,
2013-09-26 08:42:00,40.0,39.0,30.11,WNW,289,0.0,3.0,95,0.00,,,0.01,,2013-09-26 12:42:00,
2013-09-26 08:52:00,40.0,39.0,30.11,WNW,288,1.0,3.0,96,0.00,,,0.01,,2013-09-26 12:52:00,
2013-09-26 09:12:00,41.0,40.0,30.11,NW,325,1.0,3.0,95,0.00,,,0.01,,2013-09-26 13:12:00,
2013-09-26 09:22:00,41.0,40.0,30.11,NW,325,1.0,3.0,95,0.00,,,0.01,,2013-09-26 13:22:00,
2013-09-26 09:52:00,48.0,47.0,30.13,NNW,327,0.0,3.0,97,0.00,,,0.01,,2013-09-26 13:52:00,
2013-09-26 10:11:00,49.0,48.0,30.12,NE,53,0.0,3.0,97,0.00,,,0.01,,2013-09-26 14:11:00,
2013-09-26 10:22:00,50.0,49.0,30.12,ESE,105,1.0,3.0,97,0.00,,,0.01,,2013-09-26 14:22:00,
2013-09-26 10:42:00,52.0,51.0,30.12,ESE,105,0.0,3.0,97,0.00,,,0.01,,2013-09-26 14:42:00,
2013-09-26 10:52:00,54.0,53.0,30.12,ESE,105,0.0,3.0,96,0.00,,,0.01,,2013-09-26 14:52:00,
2013-09-26 11:11:00,55.0,53.0,30.12,ESE,105,1.0,3.0,93,0.00,,,0.01,,2013-09-26 15:11:00,
2013-09-26 11:22:00,57.0,54.0,30.12,ESE,105,1.0,3.0,89,0.00,,,0.01,,2013-09-26 15:22:00,
2013-09-26 11:54:00,59.0,54.0,30.12,ESE,105,1.0,3.0,82,0.00,,,0.01,,2013-09-26 15:54:00,
2013-09-26 12:24:00,62.0,50.0,30.11,NNW,338,4.0,5.0,65,0.00,,,0.01,,2013-09-26 16:24:00,
2013-09-26 12:54:00,64.0,49.0,30.12,NW,324,2.0,4.0,59,0.00,,,0.01,,2013-09-26 16:54:00,
2013-09-26 13:23:00,65.0,51.0,30.11,NW,317,3.0,4.0,60,0.00,,,0.01,,2013-09-26 17:23:00,
2013-09-26 13:52:00,66.0,48.0,30.11,NW,317,1.0,4.0,52,0.00,,,0.01,,2013-09-26 17:52:00,
2013-09-26 14:13:00,67.0,50.0,30.11,NW,317,3.0,5.0,54,0.00,,,0.01,,2013-09-26 18:13:00,
2013-09-26 14:22:00,68.0,49.0,30.11,NNW,335,4.0,5.0,51,0.00,,,0.01,,2013-09-26 18:22:00,
2013-09-26 14:52:00,69.0,47.0,30.10,North,0,0.0,6.0,46,0.00,,,0.01,,2013-09-26 18:52:00,
2013-09-26 15:22:00,71.0,49.0,30.09,North,0,3.0,4.0,45,0.00,,,0.01,,2013-09-26 19:22:00,
2013-09-26 15:52:00,71.0,49.0,30.10,North,358,1.0,5.0,45,0.00,,,0.01,,2013-09-26 19:52:00,
2013-09-26 16:12:00,71.0,51.0,30.10,North,358,3.0,3.0,50,0.00,,,0.01,,2013-09-26 20:12:00,
2013-09-26 16:22:00,71.0,52.0,30.10,NNW,346,9.0,9.0,51,0.00,,,0.01,,2013-09-26 20:22:00,
2013-09-26 16:32:00,71.0,52.0,30.10,NNW,346,9.0,9.0,51,0.00,,,0.01,,2013-09-26 20:32:00,
2013-09-26 16:52:00,67.0,55.0,30.11,ESE,117,5.0,12.0,65,0.00,,,0.01,,2013-09-26 20:52:00,
2013-09-26 17:02:00,67.0,55.0,30.11,ESE,117,5.0,12.0,65,0.00,,,0.01,,2013-09-26 21:02:00,
2013-09-26 17:23:00,67.0,54.0,30.11,North,8,7.0,10.0,64,0.00,,,0.01,,2013-09-26 21:23:00,
2013-09-26 17:34:00,67.0,54.0,30.11,North,8,7.0,10.0,64,0.00,,,0.01,,2013-09-26 21:34:00,
2013-09-26 17:54:00,66.0,53.0,30.11,NE,44,4.0,10.0,64,0.00,,,0.01,,2013-09-26 21:54:00,
2013-09-26 18:24:00,65.0,51.0,30.11,NNE,21,6.0,8.0,61,0.00,,,0.01,,2013-09-26 22:24:00,
2013-09-26 18:54:00,65.0,52.0,30.11,South,177,3.0,6.0,63,0.00,,,0.01,,2013-09-26 22:54:00,
2013-09-26 19:12:00,64.0,52.0,30.11,North,0,2.0,4.0,64,0.00,,,0.01,,2013-09-26 23:12:00,
2013-09-26 19:23:00,62.0,51.0,30.11,NNW,342,3.0,6.0,67,0.00,,,0.01,,2013-09-26 23:23:00,
2013-09-26 19:53:00,60.0,51.0,30.12,NNW,346,2.0,4.0,72,0.00,,,0.01,,2013-09-26 23:53:00,
2013-09-26 20:22:00,56.0,51.0,30.11,NNW,345,0.0,0.0,82,0.00,,,0.00,,2013-09-27 00:22:00,
2013-09-26 20:52:00,54.0,50.0,30.12,NNW,334,0.0,0.0,85,0.01,,,0.01,,2013-09-27 00:52:00,
2013-09-26 21:12:00,53.0,50.0,30.12,NNW,346,1.0,2.0,88,0.01,,,0.01,,2013-09-27 01:12:00,
2013-09-26 21:23:00,52.0,49.0,30.12,NNW,346,2.0,3.0,89,0.01,,,0.01,,2013-09-27 01:23:00,
2013-09-26 21:42:00,52.0,49.0,30.12,NNW,346,0.0,3.0,90,0.01,,,0.01,,2013-09-27 01:42:00,
2013-09-26 21:52:00,51.0,48.0,30.11,NNW,346,0.0,3.0,90,0.01,,,0.01,,2013-09-27 01:52:00,
2013-09-26 22:22:00,50.0,47.0,30.12,NNW,346,0.0,2.0,91,0.00,,,0.01,,2013-09-27 02:22:00,
2013-09-26 22:43:00,50.0,48.0,30.12,NNW,345,0.0,0.0,92,0.00,,,0.01,,2013-09-27 02:43:00,
2013-09-26 22:53:00,49.0,47.0,30.13,NNW,342,0.0,0.0,92,0.00,,,0.01,,2013-09-27 02:53:00,
2013-09-26 23:22:00,49.0,47.0,30.13,NNW,341,0.0,2.0,94,0.00,,,0.01,,2013-09-27 03:22:00,
2013-09-26 23:55:00,48.0,47.0,30.14,NNW,346,1.0,3.0,95,0.00,,,0.01,,2013-09-27 03:55:00,